RH
83 80 78 75 77 78 80 84 77 59 62 70 67 70 56 56 53 41 28 28 22 37 47 49 52 51 44 46 55 63 64 66 64 61 60 52 50 38 10 9 6 4 4
53 63 71 75 69 73 77 79 82 79 56 60 68 69 67 61 58 48 33 26 41 57 64 54 51 48 55 55 59 62 60 61 63 59 53 46 34 16 7 4 4 4 4
46 47 58 72 75 68 68 74 77 80 74 55 58 67 68 69 63 55 43 38 28 64 67 48 46 36 26 34 49 49 55 59 54 48 40 22 10 6 5 4 4 4 4
11 13 25 42 58 67 67 64 70 73 79 69 53 56 73 68 66 62 57 45 28 46 75 57 26 21 19 13 13 17 18 20 20 17 13 9 5 5 4 4 4 4 6
4 3 3 4 14 31 41 50 55 64 72 80 66 52 59 75 69 66 57 56 42 26 51 59 15 16 17 13 12 11 10 10 9 8 7 5 4 4 4 4 5 7 9
3 3 2 2 2 2 6 22 33 50 59 71 80 68 53 63 74 70 65 53 58 45 21 30 8 10 14 13 13 12 12 12 11 10 10 9 9 9 8 8 8 8 8
4 4 3 3 3 2 2 2 4 16 34 54 70 80 71 54 66 75 74 60 59 55 46 18 6 6 9 12 11 12 13 13 13 12 12 11 10 9 8 8 8 8 8
4 4 4 3 3 3 3 2 2 2 2 21 46 69 81 72 54 68 75 68 61 60 62 40 12 6 6 8 10 9 11 14 14 14 14 14 13 11 9 8 8 8 8
5 4 4 4 3 3 3 3 2 2 2 2 8 38 70 82 72 54 72 72 66 69 65 66 34 7 6 6 9 10 9 11 14 14 13 13 14 13 10 9 9 10 10
5 5 4 4 4 3 3 3 3 2 2 2 2 5 36 74 85 69 59 73 75 74 71 62 56 18 6 6 7 9 10 9 10 14 12 10 12 12 12 11 10 9 7
6 5 5 4 4 4 4 4 3 3 2 1 1 1 8 44 80 88 68 66 76 77 76 70 65 38 11 5 6 7 9 9 9 9 13 11 9 8 8 7 6 7 8
6 6 5 5 4 4 4 4 3 3 2 1 0 0 1 24 57 88 90 64 73 78 81 87 78 50 38 8 5 6 8 10 10 8 8 11 10 8 7 7 7 8 9
7 6 6 5 5 4 4 4 3 3 2 1 0 0 1 3 51 73 94 88 64 76 86 89 83 63 51 29 6 6 6 9 10 9 8 7 10 10 8 8 8 8 10
7 7 6 6 5 5 4 4 3 3 2 1 1 0 1 1 25 70 97 100 75 72 93 93 90 78 62 48 19 5 6 7 10 10 8 7 6 9 10 9 9 9 10
8 8 7 6 6 5 5 4 4 3 2 2 1 1 1 1 4 53 91 100 100 81 90 95 100 86 67 55 38 10 6 6 8 10 9 8 7 6 7 10 10 10 11
9 8 7 7 6 6 6 5 4 4 2 2 2 1 1 1 2 25 78 97 100 100 93 88 98 98 74 62 50 29 7 6 7 9 10 8 8 7 6 7 7 10 11
10 9 8 8 7 7 6 6 5 5 4 2 2 2 2 1 2 4 44 84 100 100 98 87 98 100 86 71 59 38 20 6 7 8 10 9 8 7 7 7 7 7 7
10 10 9 8 8 8 7 7 6 5 4 3 2 3 3 2 3 5 12 60 97 100 100 93 94 100 99 87 71 61 36 16 6 7 9 11 9 8 7 7 7 7 7
12 12 10 10 9 9 8 8 7 6 5 4 2 2 3 3 3 5 7 25 78 97 100 99 100 99 100 97 83 72 57 36 12 6 8 10 11 9 8 7 7 7 7
14 13 12 11 11 10 10 9 8 8 6 5 3 2 3 3 4 4 6 7 36 99 100 100 100 93 99 100 92 93 76 62 34 9 7 9 11 11 9 8 7 7 7
15 14 14 14 13 12 12 11 10 9 8 6 4 3 4 5 4 4 4 9 22 89 98 100 100 100 99 100 100 99 93 78 61 25 9 7 9 11 11 10 9 8 8
17 16 16 15 14 14 13 12 11 10 10 8 6 3 3 3 4 4 5 4 8 32 99 100 100 100 100 100 100 100 98 89 76 42 16 7 7 9 11 11 10 10 9
20 20 21 18 16 15 14 13 12 12 11 10 8 6 2 3 4 4 4 5 4 9 80 100 100 100 100 100 100 100 100 98 87 58 31 13 7 7 9 11 11 12 11
23 26 24 20 18 17 16 15 14 13 12 12 10 8 5 2 3 5 5 4 4 5 9 68 100 99 100 100 100 100 100 100 98 86 61 29 18 8 7 8 10 12 12
27 29 26 22 20 19 17 16 15 15 14 14 12 10 9 5 2 3 4 4 4 4 4 20 51 98 99 100 99 100 100 100 100 99 94 81 41 20 9 7 8 10 12
31 29 28 25 23 21 20 18 18 17 17 16 14 14 12 10 6 3 2 4 5 5 4 5 45 67 100 99 99 99 100 100 100 100 99 96 78 58 30 17 9 7 8
Wind_Speed
5 5 2 2 3 7 8 6 6 5 5 4 2 1 2 4 6 8 10 11 10 7 7 9 9 8 7 7 9 10 10 11 11 10 8 7 8 8 8 9 8 8 8
8 7 7 6 6 5 9 10 8 8 7 7 6 3 2 1 3 6 8 10 9 6 6 6 6 8 6 6 7 8 8 9 9 7 5 4 5 5 5 6 6 6 6
8 8 9 10 9 10 9 11 12 11 10 9 10 8 5 3 1 1 4 5 6 4 5 4 4 7 6 6 6 5 4 4 5 5 4 3 3 3 4 4 5 4 5
5 7 9 13 15 14 15 13 13 14 14 13 13 12 9 7 5 3 1 2 4 3 3 2 0 1 5 4 5 6 4 2 2 1 2 2 3 2 3 3 4 4 4
5 7 9 13 16 18 18 20 18 16 18 17 17 16 15 11 10 8 6 3 1 1 3 4 4 2 2 3 3 5 5 2 1 1 2 2 3 3 3 3 2 4 4
6 9 8 10 14 17 20 21 23 21 19 21 21 20 19 18 14 12 10 7 4 4 4 6 6 6 4 4 2 2 4 3 0 1 2 3 3 3 2 2 1 3 3
9 10 11 11 12 15 18 21 24 26 25 23 25 24 23 21 21 16 14 12 9 8 8 7 7 6 7 7 5 1 3 4 3 2 1 1 2 3 4 4 2 2 3
9 10 10 12 13 14 16 20 23 26 30 30 28 29 28 26 25 23 19 16 14 12 11 10 9 7 8 9 7 2 1 2 2 2 1 1 2 2 5 5 6 5 6
10 11 10 11 11 12 13 16 20 24 30 33 32 33 33 31 29 27 25 21 18 17 15 13 13 10 9 10 11 5 3 3 2 2 2 2 2 3 5 6 8 8 7
10 11 11 12 13 12 13 13 16 20 23 30 35 37 39 37 34 31 30 26 23 22 20 17 16 13 12 12 13 11 4 3 3 1 1 1 3 3 4 5 6 6 8
12 13 13 12 12 13 15 16 17 19 20 25 32 38 43 42 41 37 34 32 28 26 24 21 20 18 15 15 15 14 7 4 4 2 1 1 3 4 4 6 7 7 8
12 14 12 12 13 14 17 21 24 26 22 23 26 34 42 47 46 43 38 36 35 30 27 24 24 22 18 18 18 16 12 7 7 5 4 2 2 4 5 6 6 7 7
14 15 14 14 15 19 20 21 24 27 27 24 25 29 35 46 46 47 43 40 40 35 31 29 29 25 21 22 20 20 15 11 9 9 6 6 4 4 4 4 5 5 5
11 13 15 17 19 20 22 24 25 26 26 27 25 27 29 39 50 47 47 42 42 41 33 33 35 31 26 25 23 22 18 15 13 12 10 9 8 6 6 6 6 5 5
13 15 15 16 18 20 23 25 26 28 27 23 24 26 25 32 47 46 49 41 43 45 42 37 39 35 30 28 27 24 21 18 16 15 13 12 11 9 8 8 7 7 6
13 13 15 16 18 19 21 24 27 28 28 28 24 24 23 24 39 50 48 40 38 44 46 44 38 46 34 32 30 28 24 22 19 18 17 15 13 12 10 9 9 8 7
14 15 15 15 17 18 20 23 26 26 28 30 29 26 21 21 26 42 47 46 31 39 52 46 40 40 38 36 33 32 28 24 23 21 20 18 16 14 13 11 9 8 8
13 15 16 16 17 17 18 20 23 25 26 29 29 28 18 19 21 28 44 48 39 35 35 50 49 39 41 38 36 34 32 28 25 24 23 21 19 17 15 13 11 10 9
14 15 16 16 17 18 18 18 21 23 25 26 27 27 17 18 20 22 30 47 47 30 17 48 45 56 42 44 39 37 34 32 29 27 25 25 23 20 18 16 14 13 12
14 16 16 16 17 18 19 20 21 22 23 24 25 25 18 17 17 21 21 29 44 50 16 27 51 53 49 39 42 38 36 35 33 30 28 28 26 24 22 19 17 15 14
15 16 16 16 16 18 18 20 21 22 23 24 25 24 20 17 18 18 19 22 33 53 28 18 13 31 51 47 38 44 39 40 38 35 32 31 29 27 25 22 19 17 16
14 15 17 17 17 17 17 17 18 20 21 22 24 24 22 21 19 18 16 20 25 43 45 42 22 13 34 45 44 37 46 44 44 39 36 32 30 30 28 25 22 20 19
14 15 19 19 17 17 18 18 18 19 20 19 21 23 23 21 21 20 19 16 23 25 56 39 34 27 17 38 44 43 45 51 44 43 38 34 31 30 29 27 25 23 22
14 18 20 19 18 18 18 17 18 19 20 21 19 22 23 22 21 21 20 20 18 18 32 56 40 31 26 35 34 44 46 47 48 45 41 36 32 30 30 29 28 25 24
18 23 21 20 19 19 18 18 19 19 19 20 21 20 21 23 20 20 21 21 21 18 22 34 51 49 34 22 17 37 45 36 45 43 44 38 36 31 30 30 28 27 27
21 22 21 20 20 20 19 19 19 20 20 19 21 21 21 21 22 19 20 21 22 21 21 23 38 43 48 25 20 14 35 48 39 45 46 42 39 34 31 30 29 28 28
Wind_Direction
210 201 212 207 219 233 223 221 243 223 213 219 231 357 38 77 61 42 35 49 54 76 83 80 97 102 116 130 131 123 123 123 115 111 116 102 81 71 78 87 85 78 68
215 241 239 250 254 247 236 232 235 250 231 236 232 234 230 22 62 53 36 45 62 67 86 95 123 118 118 135 142 139 141 135 129 131 128 104 81 78 79 83 74 76 73
196 223 254 258 253 255 256 244 233 239 249 243 245 243 237 233 285 47 60 39 68 85 96 103 121 126 134 156 152 152 156 146 142 150 154 139 119 117 113 98 94 67 52
223 239 244 253 260 256 261 257 251 238 241 243 245 246 243 234 219 249 146 37 60 105 124 142 166 156 150 149 158 147 162 175 170 205 197 172 144 142 128 108 93 76 50
278 266 257 256 257 262 258 260 256 253 241 241 240 243 243 239 229 223 234 196 180 156 179 260 289 272 249 186 170 147 142 151 153 180 220 186 171 158 149 130 99 80 53
299 290 283 272 272 268 266 265 261 254 250 244 241 240 241 244 234 226 228 224 208 236 224 242 272 274 271 269 243 163 119 121 133 236 214 194 202 189 183 154 91 67 56
309 303 295 290 282 277 274 272 268 265 255 248 244 242 237 239 243 232 227 226 219 228 252 257 253 258 263 270 264 170 125 139 169 203 243 192 180 174 173 157 142 104 89
294 290 290 287 284 283 278 276 274 272 268 253 246 244 240 234 237 239 232 223 227 221 241 254 255 248 256 262 266 233 153 143 172 161 179 189 149 162 142 140 128 112 105
292 291 291 289 288 291 290 287 283 278 271 263 249 244 243 238 232 233 236 229 222 229 229 244 257 248 244 253 260 246 193 174 195 204 175 154 149 146 130 124 124 120 119
294 292 299 299 298 303 308 311 303 297 281 266 256 242 241 241 235 228 232 231 227 226 230 233 246 248 243 241 251 254 207 209 206 187 132 145 129 127 122 122 123 121 124
297 293 297 299 306 315 321 329 330 326 311 293 265 248 236 236 237 231 227 229 228 226 228 230 239 246 249 239 244 250 235 225 235 200 199 124 109 126 133 126 126 124 122
291 292 300 310 320 327 332 340 342 343 336 314 285 256 241 234 234 233 226 226 229 226 228 227 237 239 244 246 242 244 237 218 239 233 221 199 155 132 129 128 130 131 130
296 306 316 324 333 336 341 345 345 347 342 332 305 280 254 236 235 233 228 224 227 226 227 227 232 235 238 245 243 239 235 228 222 239 235 228 204 167 153 149 151 150 155
298 309 322 329 334 338 340 344 347 347 346 339 314 292 272 243 234 233 231 227 223 227 229 228 234 231 234 241 243 240 230 229 228 232 230 233 228 205 190 188 190 187 194
310 320 325 328 331 336 340 342 345 345 342 341 326 300 282 253 234 234 229 228 225 224 227 224 239 229 229 238 242 243 235 224 227 234 234 233 232 228 217 207 212 214 220
307 314 318 324 329 334 339 340 343 345 339 333 329 307 289 265 242 232 229 233 226 231 228 231 233 238 229 232 238 241 237 231 220 230 238 234 236 233 230 223 226 230 240
305 314 317 321 327 332 336 337 340 342 338 333 326 317 291 271 249 236 233 233 228 227 225 224 224 237 231 230 232 238 238 234 227 219 232 238 236 237 235 237 232 234 242
305 310 313 319 325 329 333 336 335 338 337 334 326 325 298 276 257 240 233 233 228 220 213 223 228 225 226 230 232 235 237 237 232 227 221 230 237 237 237 234 236 236 239
304 309 310 315 321 326 330 334 333 334 335 335 325 329 304 278 264 249 234 236 228 224 229 217 224 231 234 228 229 235 236 238 236 231 229 224 227 234 237 236 235 237 241
303 305 310 315 320 324 329 333 332 332 332 333 327 327 313 282 268 262 248 240 240 232 217 205 226 234 230 224 232 233 235 238 237 234 230 231 226 226 232 236 239 240 243
302 305 309 313 317 321 327 331 331 330 332 332 331 322 320 291 273 272 263 264 251 234 220 235 212 222 220 223 224 231 235 235 236 235 231 229 231 230 230 231 236 241 246
300 303 312 316 314 315 321 321 321 323 328 328 327 323 313 310 287 276 276 266 271 251 229 236 245 252 213 210 217 221 236 237 234 232 233 230 228 232 233 233 234 239 245
300 305 314 314 313 315 317 320 321 321 321 327 325 322 316 304 297 284 281 274 269 268 243 237 241 251 245 211 213 218 223 235 240 237 234 234 235 233 233 236 237 238 241
299 312 314 310 312 316 317 320 320 321 319 322 325 322 321 317 304 289 280 276 270 266 265 257 242 249 252 201 212 214 225 229 236 240 238 235 235 234 234 234 236 238 242
304 311 309 308 310 314 318 320 322 322 321 319 322 322 321 320 312 298 289 280 277 267 261 252 253 257 240 204 213 214 219 226 226 236 237 235 235 232 234 235 235 236 239
309 307 306 307 309 313 318 320 322 322 323 322 317 320 320 320 318 312 298 286 276 270 261 256 234 237 238 223 233 216 219 229 232 226 235 233 236 232 233 234 234 232 236